| time (UTC) | temp C | wind direction | speed KPH | gust KPH | rain 1hr cm | rain 24hr cm | rain mn cm | humidity % | barometer mb |
| 20260506044543 | 12 | 219 | 12.9 | 19.3 | 0.00 | 0.28 | 0.28 | 50 | 1016.1 |
| 20260506043041 | 13 | 232 | 9.7 | 17.7 | 0.00 | 0.28 | 0.28 | 48 | 1016.0 |
| 20260506041551 | 13 | 241 | 9.7 | 16.1 | 0.00 | 0.28 | 0.28 | 46 | 1015.9 |
| 20260506040047 | 13 | 232 | 12.9 | 24.1 | 0.00 | 0.28 | 0.28 | 43 | 1015.5 |
| 20260506034543 | 14 | 227 | 16.1 | 27.4 | 0.00 | 0.28 | 0.28 | 42 | 1015.4 |
| 20260506033043 | 15 | 234 | 19.3 | 30.6 | 0.00 | 0.28 | 0.28 | 40 | 1015.3 |
| 20260506031546 | 15 | 241 | 16.1 | 24.1 | 0.00 | 0.28 | 0.28 | 40 | 1015.1 |
| 20260506030047 | 15 | 218 | 9.7 | 20.9 | 0.00 | 0.28 | 0.28 | 39 | 1015.0 |
| 20260506024557 | 15 | 206 | 6.4 | 16.1 | 0.00 | 0.28 | 0.28 | 39 | 1014.7 |
| 20260506023047 | 15 | 261 | 9.7 | 24.1 | 0.00 | 0.28 | 0.28 | 36 | 1014.6 |
| 20260506021544 | 16 | 242 | 11.3 | 25.7 | 0.00 | 0.28 | 0.28 | 37 | 1014.2 |
| 20260506020040 | 16 | 244 | 11.3 | 24.1 | 0.00 | 0.28 | 0.28 | 35 | 1013.9 |
| 20260506014543 | 17 | 268 | 22.5 | 33.8 | 0.00 | 0.28 | 0.28 | 35 | 1013.8 |
| 20260506013050 | 17 | 252 | 22.5 | 43.5 | 0.00 | 0.28 | 0.28 | 35 | 1013.7 |
| 20260506011540 | 17 | 252 | 24.1 | 46.7 | 0.00 | 0.28 | 0.28 | 34 | 1013.6 |
| 20260506010048 | 18 | 260 | 20.9 | 37.0 | 0.00 | 0.28 | 0.28 | 34 | 1013.4 |
| 20260506004541 | 18 | 222 | 27.4 | 40.2 | 0.00 | 0.28 | 0.28 | 36 | 1013.3 |
| 20260506003041 | 18 | 275 | 20.9 | 45.1 | 0.00 | 0.28 | 0.28 | 35 | 1013.1 |
| 20260506001541 | 18 | 232 | 29.0 | 45.1 | 0.00 | 0.28 | 0.28 | 35 | 1013.2 |
| 20260506000052 | 18 | 241 | 25.7 | 48.3 | 0.00 | 0.28 | 0.28 | 35 | 1013.1 |
| 20260505234551 | 19 | 259 | 27.4 | 45.1 | 0.00 | 0.28 | 0.28 | 36 | 1013.1 |
| 20260505233045 | 19 | 252 | 33.8 | 49.9 | 0.00 | 0.28 | 0.28 | 36 | 1012.9 |
| 20260505231554 | 20 | 268 | 25.7 | 51.5 | 0.00 | 0.28 | 0.28 | 35 | 1012.9 |
| 20260505230053 | 20 | 239 | 25.7 | 49.9 | 0.00 | 0.28 | 0.28 | 34 | 1012.9 |
| 20260505224541 | 20 | 217 | 29.0 | 48.3 | 0.00 | 0.28 | 0.28 | 36 | 1013.2 |
| 20260505223040 | 20 | 242 | 32.2 | 54.7 | 0.00 | 0.28 | 0.28 | 36 | 1013.3 |
| 20260505221540 | 19 | 179 | 38.6 | 66.0 | 0.00 | 0.28 | 0.28 | 36 | 1013.3 |
| 20260505220048 | 20 | 241 | 32.2 | 54.7 | 0.00 | 0.28 | 0.28 | 37 | 1013.5 |
| 20260505214544 | 19 | 271 | 37.0 | 54.7 | 0.00 | 0.28 | 0.28 | 37 | 1013.5 |
| 20260505213051 | 19 | 232 | 32.2 | 67.6 | 0.00 | 0.28 | 0.28 | 40 | 1013.7 |
| 20260505211544 | 19 | 247 | 30.6 | 61.2 | 0.00 | 0.28 | 0.28 | 41 | 1013.7 |
| 20260505210038 | 18 | 242 | 40.2 | 59.5 | 0.00 | 0.28 | 0.28 | 40 | 1013.9 |
| 20260505204540 | 18 | 254 | 38.6 | 54.7 | 0.00 | 0.28 | 0.28 | 45 | 1014.3 |
| 20260505203046 | 18 | 226 | 30.6 | 49.9 | 0.00 | 0.28 | 0.28 | 46 | 1014.2 |
| 20260505201546 | 18 | 262 | 32.2 | 48.3 | 0.00 | 0.28 | 0.28 | 48 | 1014.3 |
| 20260505200043 | 17 | 238 | 37.0 | 56.3 | 0.00 | 0.28 | 0.28 | 51 | 1014.5 |
| 20260505194540 | 17 | 246 | 32.2 | 49.9 | 0.00 | 0.28 | 0.28 | 52 | 1014.4 |
| 20260505193039 | 17 | 184 | 20.9 | 43.5 | 0.00 | 0.28 | 0.28 | 53 | 1014.3 |
| 20260505191548 | 17 | 223 | 19.3 | 46.7 | 0.00 | 0.28 | 0.28 | 55 | 1014.5 |
| 20260505190046 | 17 | 259 | 25.7 | 41.8 | 0.00 | 0.28 | 0.28 | 56 | 1014.9 |
| 20260505184542 | 17 | 231 | 27.4 | 46.7 | 0.00 | 0.28 | 0.28 | 55 | 1014.9 |
| 20260505183040 | 17 | 209 | 24.1 | 43.5 | 0.00 | 0.28 | 0.28 | 57 | 1015.0 |
| 20260505181548 | 16 | 223 | 33.8 | 45.1 | 0.00 | 0.28 | 0.28 | 58 | 1015.2 |
| 20260505180100 | 16 | 207 | 22.5 | 40.2 | 0.00 | 0.28 | 0.28 | 60 | 1015.1 |
| 20260505174554 | 16 | 230 | 20.9 | 45.1 | 0.00 | 0.28 | 0.28 | 61 | 1015.2 |
| 20260505173045 | 16 | 211 | 24.1 | 37.0 | 0.00 | 0.28 | 0.28 | 61 | 1015.1 |
| 20260505171544 | 15 | 222 | 24.1 | 41.8 | 0.00 | 0.28 | 0.28 | 63 | 1015.1 |
| 20260505170040 | 15 | 226 | 24.1 | 35.4 | 0.00 | 0.28 | 0.28 | 64 | 1015.1 |
| 20260505164542 | 15 | 253 | 19.3 | 38.6 | 0.00 | 0.28 | 0.28 | 66 | 1015.0 |
| 20260505163044 | 15 | 235 | 29.0 | 41.8 | 0.00 | 0.28 | 0.28 | 65 | 1015.0 |
| 20260505161545 | 15 | 219 | 14.5 | 33.8 | 0.00 | 0.28 | 0.28 | 68 | 1015.1 |
| 20260505153040 | 14 | 229 | 20.9 | 32.2 | 0.03 | 0.28 | 0.28 | 71 | 1014.9 |
| 20260505151547 | 13 | 234 | 11.3 | 17.7 | 0.03 | 0.28 | 0.28 | 82 | 1014.6 |
| 20260505124547 | 11 | 0 | 0.0 | 4.8 | 0.03 | 0.20 | 0.20 | 88 | 1013.9 |
| 20260505123048 | 11 | 51 | 0.0 | 4.8 | 0.05 | 0.20 | 0.20 | 88 | 1013.7 |
| 20260505121546 | 11 | 0 | 0.0 | 4.8 | 0.03 | 0.18 | 0.18 | 88 | 1013.7 |
| 20260505120041 | 11 | 0 | 0.0 | 6.4 | 0.05 | 0.18 | 0.18 | 88 | 1014.0 |
| 20260505114541 | 11 | 0 | 0.0 | 0.0 | 0.05 | 0.18 | 0.18 | 88 | 1013.9 |
| 20260505113052 | 11 | 36 | 1.6 | 8.0 | 0.03 | 0.15 | 0.15 | 87 | 1013.6 |
| 20260505111548 | 11 | 57 | 4.8 | 9.7 | 0.05 | 0.15 | 0.15 | 87 | 1013.8 |
| 20260505101604 | 11 | 317 | 1.6 | 6.4 | 0.08 | 0.10 | 0.10 | 85 | 1014.9 |
| 20260505100058 | 11 | 0 | 0.0 | 4.8 | 0.08 | 0.08 | 0.08 | 85 | 1015.3 |
| 20260505094551 | 11 | 240 | 4.8 | 9.7 | 0.05 | 0.05 | 0.05 | 84 | 1016.1 |
| 20260505093100 | 11 | 191 | 1.6 | 6.4 | 0.05 | 0.05 | 0.05 | 83 | 1015.9 |
| 20260505091545 | 11 | 187 | 1.6 | 6.4 | 0.03 | 0.03 | 0.03 | 82 | 1016.1 |
| 20260505090041 | 12 | 196 | 6.4 | 12.9 | 0.00 | 0.00 | 0.00 | 81 | 1016.6 |
| 20260505084542 | 12 | 258 | 8.0 | 19.3 | 0.00 | 0.00 | 0.00 | 77 | 1016.6 |
| 20260505083041 | 13 | 205 | 4.8 | 20.9 | 0.00 | 0.00 | 0.00 | 73 | 1016.8 |
| 20260505081559 | 15 | 265 | 14.5 | 27.4 | 0.00 | 0.00 | 0.00 | 67 | 1017.2 |
| 20260505080057 | 15 | 271 | 9.7 | 16.1 | 0.00 | 0.00 | 0.00 | 56 | 1016.8 |
| 20260505074545 | 15 | 272 | 4.8 | 11.3 | 0.00 | 0.00 | 0.00 | 55 | 1016.6 |
| 20260505073041 | 15 | 259 | 9.7 | 19.3 | 0.00 | 0.00 | 0.00 | 54 | 1017.1 |
| 20260505071550 | 15 | 241 | 11.3 | 24.1 | 0.00 | 0.00 | 0.00 | 54 | 1016.8 |
| 20260505070047 | 16 | 264 | 14.5 | 25.7 | 0.00 | 0.00 | 0.00 | 53 | 1017.2 |
| 20260505064547 | 16 | 240 | 17.7 | 29.0 | 0.00 | 0.00 | 0.00 | 52 | 1017.4 |
| 20260505063050 | 16 | 246 | 16.1 | 27.4 | 0.00 | 0.00 | 0.00 | 53 | 1017.2 |
| 20260505061545 | 16 | 241 | 17.7 | 29.0 | 0.00 | 0.00 | 0.00 | 53 | 1017.2 |